FW9956 Weather Reports


time (UTC)temp
C
wind
direction
speed
KPH
gust
KPH
rain 1hr
cm
rain 24hr
cm
rain mn
cm
humidity
%
barometer
mb
20260509112608 20 192 0.0 0.0 0.00 0.00 0.00 88 1007.6
20260509112106 20 191 0.0 0.0 0.00 0.00 0.00 88 1007.8
20260509111603 20 192 0.0 0.0 0.00 0.00 0.00 88 1007.3
20260509111100 21 191 0.0 0.0 0.00 0.00 0.00 88 1007.3
20260509110557 21 192 0.0 1.6 0.00 0.00 0.00 88 1007.0
20260509110054 21 191 1.6 1.6 0.00 0.00 0.00 88 1006.8
20260509105552 21 205 1.6 3.2 0.00 0.00 0.00 89 1006.8
20260509105049 21 195 3.2 4.8 0.00 0.00 0.00 89 1006.8
20260509104546 21 191 4.8 8.0 0.00 0.00 0.00 90 1006.9
20260509104043 21 190 0.0 1.6 0.00 0.00 0.00 90 1006.7
20260509103541 21 197 1.6 1.6 0.00 0.00 0.00 90 1006.9
20260509103039 21 197 1.6 1.6 0.00 0.00 0.00 90 1006.7
20260509102536 21 179 1.6 1.6 0.00 0.00 0.00 90 1006.8
20260509102033 21 193 0.0 0.0 0.00 0.00 0.00 90 1006.6
20260509101529 21 192 0.0 0.0 0.00 0.00 0.00 90 1006.7
20260509101026 21 188 0.0 0.0 0.00 0.00 0.00 89 1006.9
20260509100523 21 181 0.0 1.6 0.00 0.00 0.00 89 1006.7
20260509100020 21 185 1.6 1.6 0.00 0.00 0.00 89 1006.6
20260509095517 21 185 0.0 0.0 0.00 0.00 0.00 89 1006.4
20260509095014 21 167 0.0 1.6 0.00 0.00 0.00 90 1006.5
20260509094510 21 202 1.6 1.6 0.00 0.00 0.00 90 1006.1
20260509094008 21 210 4.8 4.8 0.00 0.00 0.00 90 1006.1
20260509093506 21 138 1.6 3.2 0.00 0.00 0.00 90 1006.2
20260509093003 21 199 0.0 0.0 0.00 0.00 0.00 90 1006.5
20260509092501 21 189 0.0 0.0 0.00 0.00 0.00 90 1006.5
20260509091959 21 188 0.0 0.0 0.00 0.00 0.00 90 1006.4
20260509091456 21 190 0.0 0.0 0.00 0.00 0.00 90 1006.7
20260509090953 21 192 1.6 1.6 0.00 0.00 0.00 90 1006.2
20260509090450 21 194 1.6 1.6 0.00 0.00 0.00 90 1005.8
20260509085948 21 206 4.8 4.8 0.00 0.00 0.00 90 1005.5
20260509085444 21 184 4.8 4.8 0.00 0.00 0.00 90 1004.9
20260509084941 21 138 4.8 4.8 0.00 0.00 0.00 90 1005.1
20260509084438 21 202 4.8 4.8 0.00 0.00 0.00 90 1004.5
20260509083935 21 186 4.8 4.8 0.00 0.00 0.00 89 1004.5
20260509083432 21 191 4.8 4.8 0.00 0.00 0.00 89 1004.5
20260509082929 21 238 4.8 8.0 0.00 0.00 0.00 90 1004.5
20260509082426 21 152 6.4 11.3 0.00 0.00 0.00 90 1005.1
20260509081923 21 178 9.7 14.5 0.00 0.00 0.00 90 1005.3
20260509081420 21 153 8.0 9.7 0.00 0.00 0.00 90 1005.8
20260509080918 21 165 4.8 8.0 0.00 0.00 0.00 90 1005.9
20260509080415 21 186 4.8 4.8 0.00 0.00 0.00 90 1006.1
20260509075914 21 186 6.4 9.7 0.00 0.00 0.00 90 1006.6
20260509075410 21 125 3.2 4.8 0.00 0.00 0.00 89 1006.9
20260509074908 21 189 1.6 1.6 0.00 0.00 0.00 89 1007.3
20260509074405 21 235 4.8 8.0 0.00 0.00 0.00 89 1007.5
20260509073901 21 177 1.6 3.2 0.00 0.00 0.00 89 1007.4
20260509073358 21 233 3.2 8.0 0.00 0.00 0.00 89 1007.5
20260509072854 22 224 4.8 4.8 0.00 0.00 0.00 89 1008.0
20260509072351 22 182 4.8 4.8 0.00 0.00 0.00 89 1007.9
20260509071848 22 197 1.6 1.6 0.00 0.00 0.00 89 1008.1
20260509071345 21 192 6.4 9.7 0.00 0.00 0.00 89 1008.3
20260509070842 21 197 3.2 4.8 0.00 0.00 0.00 90 1008.4
20260509070338 21 195 3.2 3.2 0.00 0.00 0.00 90 1008.4
20260509065835 21 195 3.2 4.8 0.00 0.00 0.00 90 1008.8
20260509065331 21 195 0.0 1.6 0.00 0.00 0.00 90 1008.8
20260509064827 21 201 3.2 4.8 0.00 0.00 0.00 90 1008.6
20260509064325 21 213 1.6 3.2 0.00 0.00 0.00 89 1008.5
20260509063822 21 214 3.2 3.2 0.00 0.00 0.00 90 1008.6
20260509063318 21 196 0.0 0.0 0.00 0.00 0.00 89 1008.6
20260509062816 21 209 0.0 1.6 0.00 0.00 0.00 89 1008.6
20260509062313 21 204 0.0 1.6 0.00 0.00 0.00 89 1008.3
20260509061810 21 178 3.2 3.2 0.00 0.00 0.00 89 1008.6
20260509061308 21 192 0.0 0.0 0.00 0.00 0.00 89 1008.6
20260509060804 21 205 0.0 0.0 0.00 0.00 0.00 89 1008.7
20260509060301 21 180 0.0 0.0 0.00 0.00 0.00 89 1008.5
20260509055757 21 192 0.0 0.0 0.00 0.00 0.00 88 1008.8
20260509055253 21 183 0.0 0.0 0.00 0.00 0.00 88 1008.8
20260509054749 21 181 0.0 0.0 0.00 0.00 0.00 88 1008.7
20260509054246 21 195 0.0 0.0 0.00 0.00 0.00 87 1009.3
20260509053745 21 184 0.0 0.0 0.00 0.00 0.00 87 1009.3
20260509053241 22 187 0.0 0.0 0.00 0.00 0.00 86 1009.1
20260509052739 22 190 0.0 0.0 0.00 0.00 0.00 86 1009.4
20260509052237 22 188 0.0 0.0 0.00 0.00 0.00 86 1009.7
20260509051734 22 191 0.0 0.0 0.00 0.00 0.00 86 1009.6
20260509051232 22 172 1.6 1.6 0.00 0.00 0.00 86 1009.8
20260509050729 22 43 1.6 3.2 0.00 0.00 0.00 85 1009.2
20260509050225 22 191 0.0 0.0 0.00 0.00 0.00 85 1008.7
20260509045723 22 183 0.0 0.0 0.00 0.00 0.00 84 1008.3
20260509045219 22 182 1.6 1.6 0.00 0.00 0.00 84 1008.4
20260509044717 22 185 0.0 0.0 0.00 0.00 0.00 84 1008.3
20260509044214 22 192 1.6 3.2 0.00 0.00 0.00 83 1008.5
20260509043710 22 186 0.0 0.0 0.00 0.00 0.00 83 1008.5
20260509043206 22 194 0.0 0.0 0.00 0.00 0.00 83 1008.6
20260509042703 22 193 1.6 3.2 0.00 0.00 0.00 83 1008.4
20260509042159 22 201 1.6 1.6 0.00 0.00 0.00 83 1008.3
20260509041656 22 190 0.0 0.0 0.00 0.00 0.00 83 1008.2
20260509041153 22 185 1.6 1.6 0.00 0.00 0.00 82 1008.1
20260509040651 22 184 0.0 1.6 0.00 0.00 0.00 82 1008.0
20260509040148 22 186 1.6 1.6 0.00 0.00 0.00 82 1007.8
20260509035645 22 193 3.2 3.2 0.00 0.00 0.00 82 1008.1
20260509035141 23 193 1.6 3.2 0.00 0.00 0.00 82 1007.9
20260509034639 23 140 3.2 3.2 0.00 0.00 0.00 81 1008.5
20260509034136 23 186 0.0 0.0 0.00 0.00 0.00 81 1008.9
20260509033633 23 187 0.0 0.0 0.00 0.00 0.00 81 1009.0
20260509033130 23 194 0.0 0.0 0.00 0.00 0.00 81 1008.7
20260509032627 23 187 0.0 0.0 0.00 0.00 0.00 81 1008.5
20260509032124 22 187 0.0 0.0 0.00 0.00 0.00 81 1008.3
20260509031622 22 198 1.6 1.6 0.00 0.00 0.00 81 1008.3
20260509031119 22 176 0.0 1.6 0.00 0.00 0.00 81 1008.2
20260509030617 22 179 0.0 1.6 0.00 0.00 0.00 81 1008.0
20260509030114 22 190 0.0 1.6 0.00 0.00 0.00 81 1007.9
20260509025610 22 188 1.6 3.2 0.00 0.00 0.00 81 1007.7
20260509025106 22 106 1.6 3.2 0.00 0.00 0.00 81 1007.5
20260509024602 22 146 1.6 4.8 0.00 0.00 0.00 81 1007.6
20260509024058 22 188 3.2 4.8 0.00 0.00 0.00 81 1007.3
20260509023556 22 190 1.6 1.6 0.00 0.00 0.00 81 1007.3
20260509023052 22 192 1.6 1.6 0.00 0.00 0.00 81 1007.0
20260509022548 22 176 3.2 3.2 0.00 0.00 0.00 80 1007.0
20260509022047 22 110 3.2 3.2 0.00 0.00 0.00 80 1007.1
20260509021543 22 197 1.6 1.6 0.00 0.00 0.00 80 1007.0
20260509021041 23 188 3.2 3.2 0.00 0.00 0.00 80 1006.7
20260509020539 23 183 0.0 1.6 0.00 0.00 0.00 79 1007.2
20260509020035 23 179 0.0 1.6 0.00 0.00 0.00 79 1006.8
20260509015535 23 120 1.6 3.2 0.00 0.00 0.00 79 1006.6
20260509015031 23 161 1.6 4.8 0.00 0.00 0.00 79 1006.8
20260509014528 23 151 3.2 3.2 0.00 0.00 0.00 79 1006.9
20260509014024 23 192 1.6 3.2 0.00 0.00 0.00 79 1006.8
20260509013521 23 144 0.0 1.6 0.00 0.00 0.00 79 1006.9
20260509013016 23 175 1.6 1.6 0.00 0.00 0.00 78 1007.1
20260509012514 23 179 0.0 0.0 0.00 0.00 0.00 78 1007.0
20260509012010 23 199 3.2 3.2 0.00 0.00 0.00 78 1007.1
20260509011508 23 205 0.0 0.0 0.00 0.00 0.00 78 1007.0
20260509011005 23 182 1.6 3.2 0.00 0.00 0.00 78 1007.0
20260509010503 23 169 1.6 1.6 0.00 0.00 0.00 77 1006.6
20260509005959 23 208 3.2 4.8 0.00 0.00 0.00 77 1006.6
20260509005458 23 172 1.6 3.2 0.00 0.00 0.00 77 1006.7
20260509004957 23 177 3.2 4.8 0.00 0.00 0.00 77 1006.3
20260509004455 23 184 3.2 4.8 0.00 0.00 0.00 77 1006.2
20260509003952 23 163 3.2 4.8 0.00 0.00 0.00 77 1006.5
20260509003450 23 209 3.2 3.2 0.00 0.00 0.00 77 1006.3
20260509002947 23 191 4.8 4.8 0.00 0.00 0.00 76 1006.4
20260509002445 23 170 4.8 8.0 0.00 0.00 0.00 76 1006.2
20260509001942 23 204 1.6 3.2 0.00 0.00 0.00 76 1006.3
20260509001438 23 165 3.2 8.0 0.00 0.00 0.00 76 1006.1
20260509000935 23 214 1.6 3.2 0.00 0.00 0.00 75 1006.1
20260509000433 23 159 1.6 1.6 0.00 0.00 0.00 75 1006.4
20260508235928 23 188 3.2 3.2 0.00 0.00 0.00 75 1006.3
20260508235427 23 155 4.8 8.0 0.00 0.00 0.00 74 1006.6
20260508234923 23 180 3.2 3.2 0.00 0.00 0.00 74 1006.7
20260508234420 23 168 3.2 3.2 0.00 0.00 0.00 73 1006.8
20260508233918 23 199 1.6 3.2 0.00 0.00 0.00 73 1006.7
20260508233417 23 158 3.2 4.8 0.00 0.00 0.00 73 1006.6
20260508232913 24 202 3.2 3.2 0.00 0.00 0.00 72 1006.9
20260508232410 24 174 3.2 4.8 0.00 0.00 0.00 71 1006.9
20260508231908 24 213 4.8 8.0 0.00 0.00 0.00 71 1006.8
20260508231404 25 190 0.0 0.0 0.00 0.00 0.00 71 1007.0
20260508230901 25 173 1.6 4.8 0.00 0.00 0.00 70 1007.0
20260508230358 25 199 1.6 1.6 0.00 0.00 0.00 68 1006.9
20260508225855 25 184 1.6 1.6 0.00 0.00 0.00 68 1006.8
20260508225351 25 201 1.6 1.6 0.00 0.00 0.00 69 1006.9
20260508224850 25 190 4.8 9.7 0.00 0.00 0.00 68 1006.8
20260508224347 25 126 3.2 4.8 0.00 0.00 0.00 67 1006.9
20260508223844 25 168 3.2 4.8 0.00 0.00 0.00 68 1006.8
20260508223341 25 186 0.0 1.6 0.00 0.00 0.00 70 1006.8
20260508222839 24 148 4.8 8.0 0.00 0.00 0.00 70 1006.7
20260508222336 24 192 9.7 11.3 0.00 0.00 0.00 70 1006.8
20260508221833 24 192 8.0 9.7 0.00 0.00 0.00 69 1006.8
20260508221328 25 162 8.0 11.3 0.00 0.00 0.00 68 1007.0
20260508220825 25 185 3.2 4.8 0.00 0.00 0.00 68 1006.8
20260508220321 25 195 1.6 3.2 0.00 0.00 0.00 68 1006.7
20260508215818 25 209 4.8 4.8 0.00 0.00 0.00 66 1006.6
20260508215314 25 205 3.2 4.8 0.00 0.00 0.00 66 1006.9
20260508214812 25 199 8.0 9.7 0.00 0.00 0.00 66 1007.0
20260508214308 25 173 4.8 8.0 0.00 0.00 0.00 66 1007.1
20260508213805 25 217 0.0 1.6 0.00 0.00 0.00 67 1007.0
20260508213302 25 206 6.4 8.0 0.00 0.00 0.00 65 1007.0
20260508212758 25 168 3.2 4.8 0.00 0.00 0.00 66 1007.2
20260508212254 24 183 1.6 3.2 0.00 0.00 0.00 68 1007.0
20260508211750 24 162 3.2 8.0 0.00 0.00 0.00 67 1007.5
20260508211246 24 196 4.8 9.7 0.00 0.00 0.00 67 1007.3
20260508210744 25 188 4.8 4.8 0.00 0.00 0.00 66 1007.2
20260508210241 25 205 4.8 4.8 0.00 0.00 0.00 66 1007.2
20260508205737 25 186 3.2 4.8 0.00 0.00 0.00 66 1007.4
20260508205234 24 144 4.8 4.8 0.00 0.00 0.00 67 1007.5
20260508204730 23 232 1.6 1.6 0.00 0.00 0.00 72 1007.7
20260508204221 22 149 4.8 4.8 0.00 0.00 0.00 74 1008.0
20260508203717 22 174 1.6 3.2 0.00 0.00 0.00 74 1008.4
20260508203213 22 215 4.8 4.8 0.00 0.00 0.00 71 1008.7
20260508202710 22 186 4.8 8.0 0.00 0.00 0.00 70 1008.7
20260508202207 22 141 1.6 3.2 0.00 0.00 0.00 71 1009.2
20260508201704 23 182 3.2 3.2 0.00 0.00 0.00 71 1009.2
20260508201200 23 217 8.0 11.3 0.00 0.00 0.00 70 1009.3
20260508200657 23 182 4.8 8.0 0.00 0.00 0.00 70 1009.1
20260508200153 23 147 6.4 9.7 0.00 0.00 0.00 70 1009.0
20260508195650 23 181 3.2 4.8 0.00 0.00 0.00 69 1009.3
20260508195146 24 201 4.8 4.8 0.00 0.00 0.00 69 1009.1
20260508194643 24 193 0.0 1.6 0.00 0.00 0.00 68 1008.8
20260508194140 24 185 3.2 3.2 0.00 0.00 0.00 68 1008.8
20260508193637 24 146 1.6 1.6 0.00 0.00 0.00 69 1008.9
20260508193133 23 205 8.0 12.9 0.00 0.00 0.00 69 1009.0
20260508192630 23 102 1.6 3.2 0.00 0.00 0.00 69 1008.9
20260508192127 24 228 4.8 11.3 0.00 0.00 0.00 69 1009.1
20260508191624 24 183 3.2 9.7 0.00 0.00 0.00 69 1009.1
20260508191120 24 150 4.8 4.8 0.00 0.00 0.00 68 1009.0
20260508190618 24 193 1.6 3.2 0.00 0.00 0.00 69 1009.3
20260508190114 25 134 1.6 1.6 0.00 0.00 0.00 68 1009.1
20260508185611 25 319 3.2 4.8 0.00 0.00 0.00 67 1009.2
20260508185108 25 137 1.6 3.2 0.00 0.00 0.00 67 1009.2
20260508184606 25 207 3.2 4.8 0.00 0.00 0.00 67 1009.4
20260508184103 26 205 4.8 8.0 0.00 0.00 0.00 63 1009.3
20260508183559 26 227 3.2 3.2 0.00 0.00 0.00 64 1009.4
20260508183055 26 210 3.2 3.2 0.00 0.00 0.00 64 1009.4
20260508182552 26 242 1.6 3.2 0.00 0.00 0.00 65 1009.6
20260508182049 26 198 0.0 1.6 0.00 0.00 0.00 64 1009.3
20260508181543 25 242 6.4 9.7 0.00 0.00 0.00 63 1009.6
20260508181042 25 142 1.6 3.2 0.00 0.00 0.00 64 1009.9
20260508180538 25 201 1.6 3.2 0.00 0.00 0.00 65 1010.3
20260508180034 25 192 1.6 1.6 0.00 0.00 0.00 65 1010.1
20260508175531 25 162 3.2 3.2 0.00 0.00 0.00 63 1010.2
20260508175028 25 190 1.6 3.2 0.00 0.00 0.00 64 1010.2
20260508174526 26 178 1.6 1.6 0.00 0.00 0.00 63 1010.1
20260508174023 25 184 1.6 1.6 0.00 0.00 0.00 64 1010.1
20260508173519 25 147 4.8 4.8 0.00 0.00 0.00 64 1010.4
20260508173016 25 225 4.8 9.7 0.00 0.00 0.00 65 1010.3
20260508172513 25 197 1.6 3.2 0.00 0.00 0.00 64 1010.4
20260508172009 25 149 1.6 1.6 0.00 0.00 0.00 63 1010.6
20260508171506 25 215 1.6 3.2 0.00 0.00 0.00 62 1010.5
20260508171002 24 193 1.6 3.2 0.00 0.00 0.00 62 1010.6
20260508170500 24 169 4.8 4.8 0.00 0.00 0.00 62 1010.9
20260508165956 23 205 4.8 8.0 0.00 0.00 0.00 63 1011.0
20260508165455 23 179 1.6 3.2 0.00 0.00 0.00 64 1011.1
20260508164950 23 219 4.8 8.0 0.00 0.00 0.00 63 1011.4
20260508164448 22 180 1.6 1.6 0.00 0.00 0.00 65 1011.4
20260508163944 23 188 1.6 1.6 0.00 0.00 0.00 65 1011.4
20260508163443 22 139 0.0 1.6 0.00 0.00 0.00 66 1011.6
20260508162938 22 193 0.0 1.6 0.00 0.00 0.00 67 1011.8
20260508162436 22 149 3.2 4.8 0.00 0.00 0.00 66 1012.0
20260508161932 22 213 4.8 4.8 0.00 0.00 0.00 66 1011.7
20260508161429 22 225 6.4 9.7 0.00 0.00 0.00 65 1012.1
20260508160927 22 201 1.6 1.6 0.00 0.00 0.00 66 1012.0
20260508160426 22 183 3.2 4.8 0.00 0.00 0.00 65 1011.9
20260508155921 22 70 4.8 4.8 0.00 0.00 0.00 65 1012.0
20260508155419 22 138 4.8 9.7 0.00 0.00 0.00 65 1012.1
20260508154915 21 230 4.8 4.8 0.00 0.00 0.00 67 1012.2
20260508154413 21 122 0.0 1.6 0.00 0.00 0.00 67 1012.1
20260508153909 21 174 3.2 3.2 0.00 0.00 0.00 68 1012.2
20260508153407 21 193 1.6 3.2 0.00 0.00 0.00 69 1012.4
20260508152903 20 194 1.6 3.2 0.00 0.00 0.00 69 1012.4
20260508152359 21 140 1.6 3.2 0.00 0.00 0.00 69 1012.2
20260508151856 20 132 0.0 1.6 0.00 0.00 0.00 69 1012.5
20260508151353 20 177 1.6 1.6 0.00 0.00 0.00 69 1012.4
20260508150849 20 183 1.6 3.2 0.00 0.00 0.00 70 1012.7
20260508150346 20 162 1.6 4.8 0.00 0.00 0.00 70 1012.5
20260508145842 20 168 1.6 1.6 0.00 0.00 0.00 70 1012.4
20260508145338 20 187 1.6 3.2 0.00 0.00 0.00 70 1012.6
20260508144835 20 214 1.6 3.2 0.00 0.00 0.00 71 1012.4
20260508144333 20 190 1.6 1.6 0.00 0.00 0.00 71 1012.7
20260508143830 20 123 1.6 3.2 0.00 0.00 0.00 71 1012.6
20260508143327 20 189 3.2 4.8 0.00 0.00 0.00 70 1012.5
20260508142824 19 177 3.2 3.2 0.00 0.00 0.00 70 1012.6
20260508142321 19 341 3.2 4.8 0.00 0.00 0.00 71 1012.7
20260508141817 19 188 8.0 9.7 0.00 0.00 0.00 70 1012.5
20260508141314 19 130 1.6 4.8 0.00 0.00 0.00 71 1013.0
20260508140812 19 123 6.4 8.0 0.00 0.00 0.00 71 1012.8
20260508140309 19 172 0.0 0.0 0.00 0.00 0.00 72 1012.8
20260508135804 20 185 3.2 4.8 0.00 0.00 0.00 72 1012.8
20260508135300 20 212 4.8 4.8 0.00 0.00 0.00 70 1012.8
20260508134756 19 195 3.2 3.2 0.00 0.00 0.00 72 1012.8
20260508134253 19 182 4.8 8.0 0.00 0.00 0.00 74 1012.6
20260508133750 19 193 1.6 1.6 0.00 0.00 0.00 75 1012.6
20260508133248 19 185 0.0 1.6 0.00 0.00 0.00 75 1012.4
20260508132745 18 147 1.6 1.6 0.00 0.00 0.00 76 1012.8
20260508132242 18 189 0.0 1.6 0.00 0.00 0.00 77 1012.6
20260508131738 18 186 0.0 0.0 0.00 0.00 0.00 78 1012.8
20260508131235 18 177 0.0 0.0 0.00 0.00 0.00 78 1012.6
20260508130731 18 189 0.0 1.6 0.00 0.00 0.00 80 1012.8
20260508130229 17 157 0.0 1.6 0.00 0.00 0.00 81 1012.8
20260508125724 17 195 0.0 0.0 0.00 0.00 0.00 81 1012.9
20260508125220 17 161 3.2 4.8 0.00 0.00 0.00 82 1012.6
20260508124719 17 187 0.0 0.0 0.00 0.00 0.00 82 1012.8
20260508124216 17 189 0.0 1.6 0.00 0.00 0.00 83 1012.9
20260508123714 17 179 0.0 0.0 0.00 0.00 0.00 83 1012.8
20260508123212 17 184 0.0 0.0 0.00 0.00 0.00 83 1013.1
20260508122708 17 192 0.0 0.0 0.00 0.00 0.00 83 1012.9
20260508122205 17 190 0.0 0.0 0.00 0.00 0.00 83 1013.0
20260508121702 17 184 0.0 0.0 0.00 0.00 0.00 83 1013.0
20260508121201 17 187 0.0 0.0 0.00 0.00 0.00 83 1012.9
20260508120657 17 161 4.8 8.0 0.00 0.00 0.00 84 1013.0
20260508120156 17 187 1.6 3.2 0.00 0.00 0.00 84 1012.7
20260508115653 17 191 0.0 0.0 0.00 0.00 0.00 85 1012.7
20260508115150 17 190 0.0 0.0 0.00 0.00 0.00 86 1013.1
20260508114647 17 177 0.0 0.0 0.00 0.00 0.00 86 1013.0
20260508114143 17 191 0.0 0.0 0.00 0.00 0.00 87 1013.2
20260508113640 17 172 0.0 0.0 0.00 0.00 0.00 87 1013.0
20260508113139 17 185 0.0 0.0 0.00 0.00 0.00 87 1012.9